When you browse on this site, cookies collect data to enhance your experience and personalize the content and advertising you see.
Visit our Privacy Policy to learn more. By continuing to use the site, you agree to this use of cookies and data.
  • In Österreich
  • Länderverzeichnis
  • Für 7 Tage
  • Wassertemperatur
  • Wetterkarte
  • News
  • Widgets
  • user-avatar
    Anmelden

    Stündliche Wetter Sitnica

    Heute, 6 Juni, Samstag

    Zeit Temperatur Niederschläge Wind Luftdruck Luftfeuchtigkeit
    00:00 +16°C° 0 mm 3 m/S 741 mmHg 94%
    01:00 +16°C° 0 mm 3 m/S 741 mmHg 95%
    02:00 +14°C° 0 mm 3 m/S 742 mmHg 95%
    03:00 +14°C° 0.3 mm 3 m/S 742 mmHg 96%
    04:00 +15°C° 0.3 mm 2 m/S 742 mmHg 96%
    05:00 +16°C° 0.3 mm 2 m/S 742 mmHg 97%
    06:00 +16°C° 0.2 mm 3 m/S 742 mmHg 96%
    07:00 +17°C° 0.2 mm 3 m/S 743 mmHg 95%
    08:00 +17°C° 0.2 mm 3 m/S 743 mmHg 95%
    09:00 +18°C° 0.1 mm 3 m/S 744 mmHg 92%
    10:00 +18°C° 0.1 mm 3 m/S 744 mmHg 89%
    11:00 +19°C° 0.1 mm 4 m/S 745 mmHg 86%
    12:00 +21°C° 0 mm 4 m/S 745 mmHg 78%
    13:00 +22°C° 0 mm 4 m/S 745 mmHg 71%
    14:00 +25°C° 0 mm 4 m/S 746 mmHg 63%
    15:00 +23°C° 0 mm 4 m/S 746 mmHg 64%
    16:00 +23°C° 0 mm 4 m/S 746 mmHg 66%
    17:00 +23°C° 0 mm 4 m/S 746 mmHg 67%
    18:00 +21°C° 0 mm 3 m/S 746 mmHg 73%
    19:00 +20°C° 0 mm 2 m/S 747 mmHg 78%
    20:00 +19°C° 0 mm 1 m/S 747 mmHg 84%
    21:00 +18°C° 0 mm 1 m/S 747 mmHg 85%
    22:00 +16°C° 0 mm 1 m/S 748 mmHg 86%
    23:00 +14°C° 0 mm 0 m/S 748 mmHg 87%

    Morgen, 7 Juni, Sonntag

    Zeit Temperatur Niederschläge Wind Luftdruck Luftfeuchtigkeit
    00:00 +15°C° 0 mm 1 m/S 748 mmHg 88%
    01:00 +15°C° 0 mm 1 m/S 748 mmHg 89%
    02:00 +15°C° 0 mm 2 m/S 748 mmHg 90%
    03:00 +15°C° 0 mm 2 m/S 749 mmHg 90%
    04:00 +15°C° 0 mm 2 m/S 749 mmHg 90%
    05:00 +14°C° 0 mm 3 m/S 749 mmHg 90%
    06:00 +16°C° 0 mm 3 m/S 749 mmHg 88%
    07:00 +17°C° 0 mm 3 m/S 749 mmHg 87%
    08:00 +18°C° 0 mm 3 m/S 749 mmHg 85%
    09:00 +20°C° 0 mm 3 m/S 749 mmHg 80%
    10:00 +22°C° 0 mm 4 m/S 749 mmHg 76%
    11:00 +25°C° 0 mm 4 m/S 749 mmHg 71%
    12:00 +26°C° 0 mm 4 m/S 749 mmHg 69%
    13:00 +27°C° 0 mm 4 m/S 749 mmHg 66%
    14:00 +28°C° 0 mm 4 m/S 748 mmHg 64%
    15:00 +27°C° 0.8 mm 4 m/S 748 mmHg 69%
    16:00 +27°C° 0.8 mm 3 m/S 748 mmHg 75%
    17:00 +26°C° 0.8 mm 3 m/S 747 mmHg 81%
    18:00 +25°C° 0.1 mm 3 m/S 747 mmHg 83%
    19:00 +22°C° 0.1 mm 3 m/S 747 mmHg 84%
    20:00 +21°C° 0.1 mm 3 m/S 747 mmHg 86%
    21:00 +20°C° 0 mm 3 m/S 747 mmHg 88%
    22:00 +19°C° 0 mm 3 m/S 748 mmHg 91%
    23:00 +18°C° 0 mm 3 m/S 748 mmHg 93%

    übermorgen, 8 Juni, Montag

    Zeit Temperatur Niederschläge Wind Luftdruck Luftfeuchtigkeit
    00:00 +18°C° 0 mm 3 m/S 748 mmHg 94%
    01:00 +17°C° 0 mm 3 m/S 748 mmHg 95%
    02:00 +17°C° 0 mm 3 m/S 748 mmHg 95%
    03:00 +17°C° 0 mm 3 m/S 748 mmHg 95%
    04:00 +17°C° 0 mm 3 m/S 748 mmHg 95%
    05:00 +17°C° 0 mm 3 m/S 748 mmHg 95%
    06:00 +19°C° 0 mm 3 m/S 748 mmHg 89%
    07:00 +21°C° 0 mm 3 m/S 748 mmHg 84%
    08:00 +22°C° 0 mm 4 m/S 748 mmHg 78%
    09:00 +25°C° 0 mm 4 m/S 749 mmHg 71%
    10:00 +27°C° 0 mm 4 m/S 749 mmHg 64%
    11:00 +28°C° 0 mm 4 m/S 749 mmHg 58%
    12:00 +29°C° 0 mm 4 m/S 749 mmHg 55%
    13:00 +29°C° 0 mm 4 m/S 749 mmHg 53%
    14:00 +30°C° 0 mm 4 m/S 748 mmHg 51%
    15:00 +29°C° 0 mm 4 m/S 748 mmHg 55%
    16:00 +29°C° 0 mm 3 m/S 748 mmHg 59%
    17:00 +29°C° 0 mm 3 m/S 748 mmHg 63%
    18:00 +27°C° 0 mm 3 m/S 748 mmHg 68%
    19:00 +25°C° 0 mm 3 m/S 748 mmHg 73%
    20:00 +23°C° 0 mm 2 m/S 747 mmHg 78%
    21:00 +21°C° 0 mm 2 m/S 748 mmHg 81%
    22:00 +20°C° 0 mm 2 m/S 748 mmHg 84%
    23:00 +19°C° 0 mm 2 m/S 748 mmHg 87%

    9 Juni, Dienstag

    Zeit Temperatur Niederschläge Wind Luftdruck Luftfeuchtigkeit
    00:00 +18°C° 0 mm 2 m/S 748 mmHg 89%
    01:00 +18°C° 0 mm 2 m/S 748 mmHg 91%
    02:00 +17°C° 0 mm 2 m/S 748 mmHg 92%
    03:00 +18°C° 0 mm 3 m/S 748 mmHg 93%
    04:00 +18°C° 0 mm 3 m/S 748 mmHg 93%
    05:00 +18°C° 0 mm 3 m/S 748 mmHg 93%
    06:00 +20°C° 0 mm 3 m/S 748 mmHg 88%
    07:00 +21°C° 0 mm 4 m/S 748 mmHg 83%
    08:00 +23°C° 0 mm 4 m/S 749 mmHg 78%
    09:00 +26°C° 0 mm 4 m/S 749 mmHg 71%
    10:00 +27°C° 0 mm 5 m/S 749 mmHg 65%
    11:00 +29°C° 0 mm 5 m/S 749 mmHg 59%
    12:00 +29°C° 0 mm 5 m/S 749 mmHg 57%
    13:00 +30°C° 0 mm 4 m/S 749 mmHg 55%
    14:00 +30°C° 0 mm 4 m/S 748 mmHg 52%
    15:00 +30°C° 0 mm 4 m/S 748 mmHg 56%
    16:00 +30°C° 0 mm 3 m/S 748 mmHg 60%
    17:00 +29°C° 0 mm 3 m/S 748 mmHg 63%
    18:00 +28°C° 0.1 mm 3 m/S 748 mmHg 68%
    19:00 +26°C° 0.1 mm 2 m/S 748 mmHg 74%
    20:00 +24°C° 0.1 mm 2 m/S 748 mmHg 79%
    21:00 +23°C° 0 mm 2 m/S 748 mmHg 82%
    22:00 +21°C° 0 mm 2 m/S 748 mmHg 85%
    23:00 +20°C° 0 mm 2 m/S 749 mmHg 88%

    10 Juni, Mittwoch

    Zeit Temperatur Niederschläge Wind Luftdruck Luftfeuchtigkeit
    00:00 +20°C° 0 mm 2 m/S 748 mmHg 90%
    01:00 +19°C° 0 mm 2 m/S 748 mmHg 92%
    02:00 +19°C° 0 mm 2 m/S 748 mmHg 93%
    03:00 +19°C° 0 mm 3 m/S 748 mmHg 93%
    04:00 +19°C° 0 mm 3 m/S 748 mmHg 93%
    05:00 +19°C° 0 mm 3 m/S 748 mmHg 93%
    06:00 +21°C° 0 mm 3 m/S 748 mmHg 88%
    07:00 +22°C° 0 mm 3 m/S 748 mmHg 83%
    08:00 +25°C° 0 mm 4 m/S 748 mmHg 78%
    09:00 +26°C° 0.7 mm 4 m/S 748 mmHg 73%
    10:00 +27°C° 0.7 mm 4 m/S 748 mmHg 68%
    11:00 +29°C° 0.7 mm 4 m/S 748 mmHg 64%
    12:00 +29°C° 0.9 mm 4 m/S 747 mmHg 62%
    13:00 +30°C° 0.9 mm 4 m/S 747 mmHg 60%
    14:00 +30°C° 0.9 mm 3 m/S 747 mmHg 59%
    15:00 +30°C° 0.5 mm 3 m/S 747 mmHg 62%
    16:00 +29°C° 0.5 mm 3 m/S 746 mmHg 65%
    17:00 +29°C° 0.5 mm 3 m/S 746 mmHg 68%
    18:00 +27°C° 0.5 mm 3 m/S 746 mmHg 73%
    19:00 +26°C° 0.5 mm 3 m/S 746 mmHg 78%
    20:00 +24°C° 0.5 mm 3 m/S 746 mmHg 82%
    21:00 +23°C° 0.4 mm 2 m/S 746 mmHg 85%
    22:00 +21°C° 0.4 mm 2 m/S 746 mmHg 87%
    23:00 +20°C° 0.4 mm 2 m/S 746 mmHg 89%

    11 Juni, Donnerstag

    Zeit Temperatur Niederschläge Wind Luftdruck Luftfeuchtigkeit
    00:00 +20°C° 0 mm 2 m/S 746 mmHg 91%
    01:00 +19°C° 0 mm 2 m/S 746 mmHg 92%
    02:00 +19°C° 0 mm 2 m/S 746 mmHg 94%
    03:00 +19°C° 0.1 mm 2 m/S 745 mmHg 94%
    04:00 +19°C° 0.1 mm 2 m/S 745 mmHg 95%
    05:00 +19°C° 0.1 mm 2 m/S 745 mmHg 95%
    06:00 +20°C° 0.6 mm 2 m/S 745 mmHg 93%
    07:00 +21°C° 0.6 mm 2 m/S 745 mmHg 91%
    08:00 +24°C° 0.6 mm 2 m/S 745 mmHg 88%
    09:00 +25°C° 1 mm 2 m/S 745 mmHg 81%
    10:00 +27°C° 1 mm 2 m/S 745 mmHg 73%
    11:00 +29°C° 1 mm 3 m/S 744 mmHg 66%
    12:00 +29°C° 0.6 mm 2 m/S 744 mmHg 63%
    13:00 +30°C° 0.6 mm 2 m/S 744 mmHg 60%
    14:00 +30°C° 0.6 mm 2 m/S 744 mmHg 58%
    15:00 +30°C° 0.3 mm 2 m/S 743 mmHg 59%
    16:00 +30°C° 0.3 mm 2 m/S 743 mmHg 60%
    17:00 +30°C° 0.3 mm 2 m/S 743 mmHg 62%
    18:00 +28°C° 0.2 mm 2 m/S 743 mmHg 68%
    19:00 +26°C° 0.2 mm 2 m/S 743 mmHg 74%
    20:00 +24°C° 0.2 mm 2 m/S 743 mmHg 80%
    21:00 +23°C° 0.2 mm 2 m/S 743 mmHg 83%
    22:00 +22°C° 0.2 mm 1 m/S 743 mmHg 86%
    23:00 +21°C° 0.2 mm 1 m/S 743 mmHg 88%
    Mehr zeigen